Flag for U.S.A. Weather past 2 weeks in Helena, Montana, U.S.A.

Now
52 °F

Passing clouds.


Feels Like: 48 °F
Forecast: 36 / 48 °F
Wind: 12 mph from West

Location: Helena Regional Airport

Current Time: Jan 25, 2015 at 9:17:59 AM

Latest Report: Jan 25, 2015 at 8:53 AM


Visibility: 10 mi

Pressure: 30.18 "Hg

Humidity: 55%

Dew point: 36 °F

Location of HelenaLocation

Historic Weather in Helena — Graph

°F

Helena temperature yesterday

Maximum temperature yesterday: 49 °F (at 3:53 PM)
Minimum temperature yesterday: 35 °F (at 12:53 AM)
Average temperature yesterday: 46 °F

Past Weeks' High & Low Weather Summary

 TemperatureHumidityPressure
High54 °F (Jan 25, 6:53 AM)96% (Jan 13, 11:53 AM)30.63 "Hg (Jan 13, 11:53 AM)
Low2 °F (Jan 14, 4:53 AM)41% (Jan 22, 6:53 PM)29.94 "Hg (Jan 18, 10:53 AM)
Average27 °F71%30.32 "Hg
* Reported Jan 10 7:53 AM — Jan 25 7:53 AM, Helena, Weather by CustomWeather, © 2014

Note: Actual official high and low records may vary slightly from our data, if they occured in-between our weather recording intervals... More about our weather records

Advertising

Helena weather history for previous 24 hours

 ConditionsComfort  
Time TempWeatherWind HumidityBarometerVisibility
7:53 AM
Jan 25
52 °FPassing clouds.17 mph57%30.16 "Hg10 mi
6:53 AM54 °FPassing clouds.16 mph51%30.16 "Hg10 mi
5:53 AM42 °FPassing clouds.3 mph76%30.19 "Hg10 mi
4:53 AM46 °FOvercast.No wind71%30.19 "Hg10 mi
3:53 AM51 °FOvercast.9 mph61%30.18 "Hg10 mi
2:53 AM48 °FMostly cloudy.5 mph68%30.21 "Hg10 mi
1:53 AM49 °FClear.18 mph66%30.20 "Hg10 mi
12:53 AM48 °FPartly cloudy.16 mph68%30.22 "Hg10 mi
11:53 PM
Jan 24
48 °FPassing clouds.12 mph68%30.24 "Hg10 mi
10:53 PM46 °FPassing clouds.9 mph71%30.25 "Hg10 mi
9:53 PM46 °FMostly cloudy.10 mph71%30.27 "Hg10 mi
8:53 PM47 °FOvercast.7 mph69%30.28 "Hg10 mi
7:53 PM47 °FOvercast.15 mph66%30.27 "Hg10 mi
6:53 PM46 °FMostly cloudy.12 mph66%30.29 "Hg10 mi
5:53 PM47 °FPassing clouds.12 mph64%30.27 "Hg10 mi
4:53 PM49 °FPassing clouds.8 mph55%30.25 "Hg10 mi
3:53 PM49 °FPartly sunny.13 mph55%30.23 "Hg10 mi
2:53 PM48 °FSunny.18 mph59%30.23 "Hg10 mi
1:53 PM48 °FSunny.18 mph63%30.23 "Hg10 mi
12:53 PM48 °FSunny.17 mph63%30.25 "Hg10 mi
11:53 AM47 °FScattered clouds.12 mph69%30.26 "Hg10 mi
10:53 AM46 °FOvercast.13 mph66%30.24 "Hg10 mi
9:53 AM44 °FOvercast.7 mph71%30.24 "Hg10 mi
Weather by CustomWeather, © 2014

See weather overviewHow to use our weather pages